This is the latest recevied weather packets stored in our database for station/object K0QED. If no packets are shown the sender has not sent any weather packets the latest 1 day(s).
| Time | Temp. | Humidity | Pressure | Rain* | Wind** | Luminosity | Snow |
|---|---|---|---|---|---|---|---|
| 1778077179 | -3.33° C | 98% | 1018.5 hPa | 0 mm | - | 30 W/m² | - |
| 1778075666 | -3.33° C | 98% | 1018.1 hPa | 0 mm | - | 52 W/m² | - |
| 1778075058 | -3.33° C | 98% | 1018.5 hPa | 0 mm | - | 41 W/m² | - |
| 1778072633 | -3.89° C | 98% | 1017.4 hPa | 0 mm | - | 12 W/m² | - |
| 1778071424 | -3.89° C | 98% | 1017.4 hPa | 0 mm | - | 6 W/m² | - |
| 1778070820 | -4.44° C | 98% | 1017.1 hPa | 0 mm | - | 7 W/m² | - |
| 1778069912 | -4.44° C | 98% | 1017.2 hPa | 0 mm | - | 4 W/m² | - |
| 1778066886 | -3.89° C | 98% | 1016.9 hPa | 0 mm | - | 0 W/m² | - |
| 1778065373 | -3.89° C | 98% | 1016.6 hPa | 0 mm | - | 0 W/m² | - |
| 1778064464 | -3.89° C | 98% | 1016.2 hPa | 0 mm | - | 0 W/m² | - |
| 1778062951 | -3.89° C | 98% | 1016.1 hPa | 0 mm | - | 0 W/m² | - |
| 1778062648 | -3.89° C | 98% | 1016.4 hPa | 0 mm | - | 0 W/m² | - |
| 1778061135 | -3.89° C | 98% | 1016.4 hPa | 0 mm | - | 0 W/m² | - |
| 1778060832 | -3.33° C | 98% | 1016.1 hPa | 0 mm | - | 0 W/m² | - |
| 1778060530 | -3.89° C | 98% | 1015.9 hPa | 0 mm | - | 0 W/m² | - |
| 1778060229 | -3.89° C | 98% | 1016 hPa | 0 mm | - | 0 W/m² | - |
| 1778059925 | -3.89° C | 98% | 1016 hPa | 0 mm | - | 0 W/m² | - |
| 1778059623 | -3.33° C | 98% | 1015.7 hPa | 0 mm | - | 0 W/m² | - |
| 1778059018 | -3.33° C | 98% | 1015.7 hPa | 0 mm | - | 0 W/m² | - |
| 1778058715 | -3.33° C | 98% | 1016.1 hPa | 0 mm | - | 0 W/m² | - |
| 1778058413 | -3.33° C | 98% | 1016 hPa | 0 mm | - | 0 W/m² | - |
| 1778057806 | -3.33° C | 99% | 1015.9 hPa | 0 mm | - | 0 W/m² | - |
| 1778057199 | -3.33° C | 99% | 1016.1 hPa | 0 mm | - | 0 W/m² | - |
| 1778056896 | -3.33° C | 99% | 1016.1 hPa | 0 mm | - | 0 W/m² | - |
| 1778056593 | -3.33° C | 99% | 1016.2 hPa | 0 mm | - | 0 W/m² | - |
* Rain latest hour (hover to see other rain measurements)
** Current wind speed in m/s (hover to see current wind gust speed)